Погода в Житковичи

Хотите узнать прогноз погоды в Житковичи? Тогда Вам сюда: Погода в Житковичи

Поиск расширенной информации на нашем сайте:

Полезная информация:

Новости сайта



02.01.2020
Опубликован Долгосрочный прогноз погоды по городам России и ближнего зарубежья на январь 2020 года.
Карты: Прогноз на январь и февраль 2020 года, Сравнение прогнозируемой аномалии приземной температуры воздуха на январь 2020 года по разным моделям.




Погода в Житковичи - сегодня

Время (UTC), дата Ветер
(°,м/с) 
Видим.   Явления Облачность Т
(°С)
Тd
(°С)
f(%) Тe
(°С)
Pmin
(гПа)
dP
(гПа)
Po
(мм)
O2
(г/м3)
Тmin Tmax R s Состояние
почвы
12 22.10.21 240 (ЮЗ) 7-13{15}  20000 м    6/4 1000 м верхняя 
[Sc|Ci fib]
+12.4 -0.2 42 +11  1008.2  0.8  744  287           
15 22.10.21 230 (ЮЗ) 2{15}  10 км    6/3 1000 м верхняя 
[Sc|Ci fib]
+10.4 -0.7 46 +11  1008.9  0.6  744  289           
18 22.10.21 220 (ЮЗ) 10 км    8/0 верхняя 
[Cs]
+8.1 +0 57 +8  1009.3  0.2  745  291    +12.7       
21 22.10.21 220 (ЮЗ) 10 км    9/0 средняя, верхняя 
[Ac trans|Cs]
+7 -0.2 60 +6  1008.5  -0.7  744  292           
00 23.10.21 220 (ЮЗ) 10 км    3/0 средняя 
[Ac trans]
+6.1 -0.8 61 +5  1008.3  -0.3  744  293           
03 23.10.21 220 (ЮЗ) 10 км    6/0 средняя, верхняя 
[Ac trans|Ci fib]
+5.4 -0.4 66 +4  1008.8  0.5  744  294           
06 23.10.21 230 (ЮЗ) 10 км    8/4 600 м средняя 
[Sc|Ac trans]
+6.2 +1.4 71 +5  1011.1  2.2  746  294  +5         
09 23.10.21 230 (ЮЗ) 5-10{11}  20000 м  в посл. час ливневой дождь  8/5 600 м кучево-дожд., средняя 
[Cb cap|Ac trans]
+8 +2.9 70 +6  1013.5  2.5  748  292           
12 23.10.21 210 (ЮЗ) 5-11{13}  20000 м  {ливн. осадки}  9/6 600 м кучево-дожд., средняя 
[Cb cap|Ac trans]
+8.3 +1.5 62 +7  1016.4  1.9  749  293           
15 23.10.21 240 (ЮЗ) 4{11}  10 км  {ливн. осадки}  4/4 600 м 
[Sc]
+7 +2.1 71 +6  1016.8  1.3  750  294           
18 23.10.21 240 (ЮЗ) 10 км  {ливн. осадки}  9/6 1000 м средняя 
[Sc|Ac trans]
+6.5 +3.4 81 +6  1018.5  1.7  751  295    +9  0.3     
21 23.10.21 240 (ЮЗ) 10 км    9/0 средняя 
[Ac trans]
+6 +3.4 83 +5  1019.9  1.2  752  296           
00 24.10.21 260 (З) 10 км    9/9 1000 м 
[Sc]
+5.4 +3.5 88 +5  1021.5  1.6  753  297           
03 24.10.21 270 (З) 10 км  в посл. час ливневой дождь  10/6 600 м средняя 
[Sc|Ac und]
+5.4 +2.7 83 +4  1023  1.5  755  298           
06 24.10.21 280 (З) 10 км  {ливн. осадки}  8/8 600 м средняя 
[Sc|Ac trans]
+4.2 +1.4 82 +3  1025.8  2.6  757  300  +4    0.3     
09 24.10.21 290 (З) 10 км  в посл. час ливневой дождь  10/8 600 м кучево-дожд., средняя 
[Cb cap|Ac und]
+4.8 +0.7 75 +3  1027.9  2.2  758  300      0.0     
12 24.10.21 310 (СЗ) 3{10}  20000 м  {ливн. осадки}  9/8 600 м кучево-дожд., средняя 
[Cb calv|Ac trans]
+6 -1.6 58 +5  1029.4  1.5  759  300           
15 24.10.21 260 (З) 10 км    8/0 средняя, верхняя 
[Ac trans|Ci fib]
+5 -2.2 60 +6  1030.4  760  301      0.0     
18 24.10.21 280 (З) 10 км    3/0 верхняя 
[Ci fib]
+2.5 -2.1 72 +3  1031.6  761  304    +6.4  0.0     
21 24.10.21 тихо ()   4000 м  дымка  3/0 средняя 
[Ac trans]
-1.5 -3 89 -2  1032.9  762  309           
00 25.10.21 тихо ()   4000 м  дымка  3/0 средняя 
[Ac trans]
-2.1 -3 94 -2  1033.2  0.2  762  310           
03 25.10.21 тихо ()   4000 м  дымка  ясно 
-3.7 -4.7 93 -4  1033.7  0.4  762  312           
06 25.10.21 тихо ()   4000 м  дымка  ясно 
-2.5 -3.4 94 -3  1034.1  0.5  762  310  -5.1         
09 25.10.21 190 (Ю) 20000 м    ясно 
+6.5 +0.4 65 +6  1033.4  762  300           
12 25.10.21 160 (Ю) 20000 м    ясно 
+9.2 -0.5 51 +9  1031.7  -1.6  761  297           
Время (UTC), дата Ветер
(°,м/с) 
Видим.   Явления Облачность Т
(°С)
Тd
(°С)
f(%) Тe
(°С)
Pmin
(гПа)
dP
(гПа)
Po
(мм)
O2
(г/м3)
Тmin Tmax R s Состояние
почвы

Для получения пояснительной информации подведите курсор к названию столбца.

ПОГОДА в Житковичи - архив

Всё, что Вы хотите узнать о погоде в Житковичи - удобно и подробно!

Выберите нужную дату (начиная с 1 января 2019* года) и нажмите кнопку "Найти".
Будут отображены архивные сводки погоды по пункту Житковичи, начиная с указанной даты.


Отображать данные в формате CSV (для использования в таблицах Excel)


Внимание! Наш архив погоды предназначен исключительно для личного некоммерческого использования в познавательных целях. Если Вам необходимы официальные справки о состоянии погоды (для производственных, юридических, коммерческих и т.п. целей), обращайтесь в органы Росгидромета.

*Примечание: данная дата относится к архиву по метеостанциям СССР (Россия, СНГ, Балтия).
Архив по метеостанциям Зарубежной Европы и Азии (кроме Китая) хранится 10 дней, по другим регионам земного шара (Китай, Африка, Америка, Австралия, Океания) - 1 день.

Житковичи - район местоположения метеостанции


Название, широта, долгота, высота метеостанции:
Житковичи 52.2°ш. 27.9°д. 137 м над ур. моря [Беларусь]

Дополнительная информация

В oтличие oт бoльшинства пoгoдных сайтoв мы публикуем пoдрoбную метеoинфoрмацию в детальнoм прoфессиoнальнoм фoрмате.

Характеристики температуры и влажнoсти вoздуха измеряются на высoте 2 м в тени вдали oт зданий и деревьев.
Скoрoсть ветра измеряется на высoте 10 м (на урoвне рoста челoвека скoрoсть ветра ниже в 1.5-2 раза). Если метеoстанция нахoдится в гoрoде или в лесу, тo скoрoсть ветра занижена на 2-4 м/с пo сравнению с oткрытым местoм. Скoрoсть ветра над акватoриями крупных рек и oзёр, а также на вершинах хoлмoв на 2-5 м/с выше, чем в oбычных услoвиях.
Атмoсфернoе давление в разных тoчках местнoсти мoжет значительнo oтличаться oт давления на метеoстанции, в зависимoсти oт услoвий рельефа (при пoдъёме на 10 м давление пoнижается примернo на 1 мм рт.ст.).